STARLINK-1372 (45543 NORAD) Tracking and Keplerian Element Data

This shows tracking and keplerian element data for the satellite.

Feedback or suggestion? Click here.




ElementValue
Catalog45543
NameSTARLINK-1372
Epoch Orbit624
Epoch Day149.16667824
Epoch Year2020
RAAN226.9314
Inclination52.999
Eccentricity0.0002136
Argument of Perigee341.1623
Mean Anonmoly277.1252
Mean Motion15.33985719
Decay Rate0.03793658
L11 45543U 20025N 20149.16667824 .03793658 00000-0 10110+0 0 9999
L22 45543 52.9990 226.9314 0002136 341.1623 277.1252 15.33985719 6245

Live tracking and technical data element details for STARLINK-1372 (NORAD 45543). STARLINK-1372 can be tracked NOW for your location showing map with azimuth and elevation plus other details from your city location.

Track the satellite on the map from your city or location and see movement details for azimuth, elevation, latitude, longitude, range, height, and movement on the map or in text.







IsCatalogInMostPopularTable: catalog: 45543, numindb: 6
Update: records affected: 1



GetName: 45543 STARLINK-1372

Hit Count: updated at: Sat, 30 May 2020 16:12:17 GMT